Regional Weather Roundup
Issued by NWS Bismarck, ND

Home | Current Version | Previous Version | Text Only | Print | Product List | Glossary On
Versions: 1 2 3 4 5 6 7 8 9 10 11 12 13 14 15 16 17 18 19 20 21 22 23 24 25 26 27 28 29 30 31 32 33 34 35 36 37 38 39 40 41 42 43 44 45 46 47 48 49 50
000
ASUS43 KBIS 190759
RWRBIS

NWR BROADCAST TEXT
NATIONAL WEATHER SERVICE BISMARCK ND
200 AM CST FRI DEC 19 2014

NOTE: "FAIR" INDICATES FEW OR NO CLOUDS BELOW 12,000 FEET WITH NO
SIGNIFICANT WEATHER AND/OR OBSTRUCTIONS TO VISIBILITY.


CITY           SKY/WX    TMP DP  RH WIND       PRES   REMARKS
WILLISTON      FOG       26  25  96 CALM      29.92S VSB 1/4
MINOT          CLOUDY    25  23  92 E3        29.94S FOG
MINOT AFB      NOT AVBL
BISMARCK       PTCLDY    22  20  92 S6        29.98F WCI  14
DICKINSON      NOT AVBL
GARRISON         N/A     29  27  92 S7        29.93S
HETTINGER ARPT PTCLDY    21  17  84 W3        29.94F
JAMESTOWN      NOT AVBL
CARRINGTON     CLOUDY    25  25 100 MISG      30.01F FOG
HAZEN          FAIR      18  16  93 CALM      29.95S
WATFORD CITY   FOG       16  16 100 CALM      29.90S VSB 1/4
$$

CITY           SKY/WX    TMP DP  RH WIND       PRES   REMARKS
GRAND FORKS    CLOUDY    21  17  84 S15       30.11F WCI   8
GRAND FORKS AF NOT AVBL
DEVILS LAKE    CLOUDY    23  16  74 S13       30.00S WCI  11
FARGO          CLOUDY    22  18  85 SE14      30.14F WCI   9
$$

CITY           SKY/WX    TMP DP  RH WIND       PRES   REMARKS
ABERDEEN       CLOUDY    28  24  85 S9        30.10F WCI  19
MOBRIDGE       CLEAR     21  19  92 SE8       29.98F WCI  11
RAPID CITY     CLEAR     23  16  74 NW6       29.98F WCI  16
GLASGOW        PTCLDY    18  14  84 N5        29.91S WCI  11
SIDNEY         CLOUDY    23  18  80 CALM      29.93S
WOLF POINT     CLOUDY    20  17  88 CALM      29.93R
GLENDIVE       CLOUDY    27  25  93 S5        29.92S
MILES CITY     CLEAR     28  22  78 SW6       29.95S
BAKER          MOCLDY    30  23  75 W12       29.93S
$$

CITY           SKY/WX    TMP DP  RH WIND       PRES   REMARKS
BILLINGS       MOCLDY    32  20  61 SW21      29.96F WCI  20
GREAT FALLS    CLEAR     31  25  78 SW13      29.89S
$$




USA.gov is the U.S. government's official web portal to all federal, state and local government web resources and services.